Regional Weather Roundup
Issued by NWS

Home | Current Version | Previous Version | Graphics & Text | Print | Product List | Glossary On
Versions: 1 2 3 4 5 6 7 8 9 10 11 12 13 14 15 16 17 18 19 20 21 22 23 24 25 26 27 28 29 30 31 32 33 34 35 36 37 38 39 40 41 42 43 44 45 46 47 48 49 50
000
ASUS43 KDMX 290908
RWRIA

WEATHER ROUNDUP FOR IOWA
NATIONAL WEATHER SERVICE DES MOINES IA
400 AM CDT MON AUG 29 2016

NOTE: "FAIR" INDICATES FEW OR NO CLOUDS BELOW 12,000 FEET WITH NO
SIGNIFICANT WEATHER AND/OR OBSTRUCTIONS TO VISIBILITY.

* - THESE STATIONS ARE NOT NWS STATIONS...THUS NOT UNDER NWS
QUALITY CONTROL.  THEY ALSO DO NOT REPORT WEATHER SUCH
AS PRECIPITATION OR FOG.

IAZ001>003-012>014-020>022-031>034-043>046-291000-
   NORTHWEST IOWA

CITY           SKY/WX    TMP DP  RH WIND       PRES   REMARKS
CARROLL *      CLOUDY    64  64 100 CALM      30.15F
CHEROKEE *     CLOUDY    65  65 100 S3        30.16S
DENISON *      CLOUDY    68  66  94 CALM      30.14S
LE MARS *      PTCLDY    68  64  88 SE8G15    30.15F
ORANGE CITY *  CLOUDY    66  64  94 SE5       30.16R
SHELDON *      CLOUDY    64  64 100 S7        30.15R
SIOUX CITY     CLOUDY    68  65  90 SE6       30.14S
SPENCER        CLOUDY    65  63  93 S5        30.17R
STORM LAKE *   PTCLDY    66  64  94 S6        30.17S
$$

IAZ055>058-069>071-079>083-090>094-291000-
   SOUTHWEST IOWA

CITY           SKY/WX    TMP DP  RH WIND       PRES   REMARKS
ATLANTIC *     PTCLDY    68  66  94 CALM      30.15S
AUDUBON *      CLOUDY    66  64  94 CALM      30.17S
CLARINDA *       N/A     68  66  94 MISG      30.17S
COUNCIL BLFS * CLOUDY    70  68  94 SE7       30.15S
CRESTON *      CLOUDY    70  70 100 SE5       30.18S
HARLAN  *      CLOUDY    66  66 100 NW5       30.19S
LAMONI         PTCLDY    71  70  96 CALM      30.15F
RED OAK *      CLOUDY    70  68  94 CALM      30.15S
SHENANDOAH *   MOCLDY    68 -38   1 CALM      30.15S
$$

IAZ047>049-059>061-072>074-084-291000-
   CENTRAL IOWA

CITY           SKY/WX    TMP DP  RH WIND       PRES   REMARKS
AMES           CLOUDY    67  67 100 CALM      30.15S
ANKENY *         N/A    N/A N/A N/A MISG        N/A
BOONE *        CLOUDY    68  68 100 CALM      30.15R
CHARITON *       N/A     72  70  94 MISG      30.15S
DES MOINES     CLOUDY    73  69  87 S3        30.14S
GRINNELL*      PTCLDY    70  68  93 E6        30.18F
KNOXVILLE *    MOCLDY    70  70 100 NE5       30.15S
MARSHALLTOWN   CLOUDY    69  69 100 E5        30.16S
NEWTON *       PTCLDY    70  70 100 E7        30.16F
PELLA *        CLOUDY    69  68  95 E3        30.18S
PERRY *          N/A     68  68  99 CALM      30.15S
$$

IAZ004>006-015-016-023>025-035-036-291000-
   NORTH CENTRAL IOWA

CITY           SKY/WX    TMP DP  RH WIND       PRES   REMARKS
ALGONA *       PTCLDY    66  64  94 SW6       30.17R
ESTHERVILLE    CLOUDY    63  63 100 S6        30.16R
FORT DODGE *   CLOUDY    64  63  94 CALM      30.17R
MASON CITY     FOG       66  66 100 S5        30.19R VSB 1/4
FOREST CITY *    N/A    N/A N/A N/A MISG        N/A
WEBSTER CITY * CLOUDY    66  66 100 CALM      30.15R
IOWA FALLS *     N/A     67  66  95 CALM      30.18S FOG
$$

IAZ007>011-017>019-026>030-037>042-050>054-066-291000-
   NORTHEAST IOWA

CITY           SKY/WX    TMP DP  RH WIND       PRES   REMARKS
CEDAR RAPIDS   PTCLDY    67  67 100 E5        30.18S
CHARLES CITY * CLEAR     68  68 100 SE5       30.19R
CLINTON *      CLEAR     68  67  96 NE5       30.20R FOG
DECORAH *      CLEAR     66  66 100 SE5       30.20R
DUBUQUE        CLEAR     68  66  93 MISG      30.21S
MONTICELLO *   CLEAR     66  66 100 CALM      30.19S FOG
OELWEIN *      CLEAR     64  64 100 SE5       30.21R
WATERLOO       CLOUDY    69  66  90 SE3       30.17S
$$

IAZ064-065-067-068-078-291000-
   EAST CENTRAL IOWA

CITY           SKY/WX    TMP DP  RH WIND       PRES   REMARKS
DAVENPORT      CLEAR     68  67  96 E5        30.19R FOG
IOWA CITY      PTCLDY    70  68  93 CALM      30.19S
MT. PLEASANT * CLEAR     70  70 100 NE5       30.17S FOG
QUAD CITIES    CLEAR     70  67  90 SE3       30.18R
$$

IAZ062-063-075>077-085>089-095>099-291000-
   SOUTHEAST IOWA

CITY           SKY/WX    TMP DP  RH WIND       PRES   REMARKS
BURLINGTON     MOCLDY    71  70  96 E5        30.16S
FAIRFIELD *    CLOUDY    70  68  94 E6        30.17S
FORT MADISON * CLEAR     70  70 100 CALM      30.16F
KEOKUK *       CLEAR     72  70  94 E5        30.15R
OSKALOOSA *      N/A     68  67  97 E6        30.17F FOG
CENTERVILLE *    N/A     68  68 100 CALM      30.16F FOG
OTTUMWA        PTCLDY    69  67  93 E9        30.16S
WASHINGTON *   CLEAR     70  68  94 E3        30.18S
$$

ABBREVIATIONS USED IN REMARKS
   TC - TEMPERATURES IN CELSIUS
  WCI - WIND CHILL INDEX
   HX - HEAT INDEX
  VSB - VISIBILITY
$$





USA.gov is the U.S. government's official web portal to all federal, state and local government web resources and services.